Regional Weather Roundup
Issued by NWS

Current Version | Previous Version | Text Only | Print | Product List | Glossary On
Versions: 1 2 3 4 5 6 7 8 9 10 11 12 13 14 15 16 17 18 19 20 21 22 23 24 25 26 27 28 29 30 31 32 33 34 35 36 37 38 39 40 41 42 43 44 45 46 47 48 49 50
000
ASUS43 KLMK 010802
RWRKY
KENTUCKY REGIONAL WEATHER ROUNDUP
NATIONAL WEATHER SERVICE LOUISVILLE KY
300 AM EST MON MAR 01 2021

NOTE "FAIR" INDICATES FEW OR NO CLOUDS BELOW 12,000 FEET
WITH NO SIGNIFICANT WEATHER AND/OR OBSTRUCTIONS TO VISIBILITY.

KYZ001>023-026-027-061>063-070>075-010900-
WESTERN AND SOUTH CENTRAL KENTUCKY

CITY           SKY/WX    TMP DP  RH WIND       PRES   REMARKS
PADUCAH        CLOUDY    45  37  73 N13       30.06R
HENDERSON      CLOUDY    41  35  79 NW13G18   30.07R
OWENSBORO      CLOUDY    43  37  79 N17G23    30.04R
HOPKINSVILLE   CLOUDY    48  47  96 N16G23    29.96S
BOWLING GREEN  CLOUDY    51  46  83 NW7       29.96R
GLASGOW        LGT RAIN  49  48  93 N12G22    29.93R
$$

KYZ024-025-028>034-038-045-046-053-010900-
NORTH CENTRAL KENTUCKY

CITY           SKY/WX    TMP DP  RH WIND       PRES   REMARKS
LOUISVILLE/SDF CLOUDY    48  41  76 NW13      29.96R
LOUISVILLE/LOU CLOUDY    50  42  74 NW10G20   29.95R
FORT KNOX      CLOUDY    47  42  82 NW12      29.96R
$$

KYZ035>037-039>044-047>052-055>060-089>105-010900-
NORTHEAST KENTUCKY

CITY           SKY/WX    TMP DP  RH WIND       PRES   REMARKS
LEXINGTON      CLOUDY    47  44  90 NW8       29.87F
COVINGTON      CLOUDY    44  38  79 N15G22    29.91R
FRANKFORT      CLOUDY    49  44  83 NW7       29.90R
$$

KYZ054-064>069-076>088-106>120-010900-
SOUTHEAST KENTUCKY

CITY           SKY/WX    TMP DP  RH WIND       PRES   REMARKS
JACKSON        RAIN      54  51  90 CALM      29.87F VSB 1/2
LONDON         LGT RAIN  54  53  97 SE3       29.89F FOG
SOMERSET       NOT AVBL
MIDDLESBORO    LGT RAIN  55  55  99 CALM      29.90F
MONTICELLO     RAIN      55  55 100 W14       29.92F
$$




USA.gov is the U.S. government's official web portal to all federal, state and local government web resources and services.